Jackpot

Texas Poker Multi Jackpot System

Kini Telah hadir Jackpot SUPER ROYAL FLUSH

Kini Telah hadir Jackpot 2000 (khusus table VIP keatas).

Ikutilah global jackpot yang tersedia di system kami, dengan system jackpot terbaru dan pertama di indonesia, anda dapat membeli jackpot dengan harga 100 rupiah saja dan menangkan hadiahnya hingga puluhan juta rupiah.

Jackpot bukanlah suatu keharusan untuk dibeli, namun kami memberikan suatu fitur tambahan untuk member tercinta dari www.kaskuspoker.com.

Terdapat tiga pilihan harga jackpot yang bisa anda beli yaitu :100,500,1000 dan 2000(khusus table VIP Keatas) rupiah.

Hadiah dari Multi jackpot system www.kaskuspoker.com

  1. full house x 10 harga jackpot yang anda beli.
      (contoh:anda membeli 1000 maka:1000 X10 = 10.000)
  2. four of kind x 250 harga jackpot yang anda beli
      (contoh:anda membeli 1000 maka:1000 X250 = 250.000)
  3. Straight flush x 1200
      (contoh:anda membeli 1000 maka:1000 X1200 = 1.200.000)
  4. Royal flush x 10000 harga jackpot yang anda beli
      (contoh:anda membeli 1000 maka:1000 X10000 = 10.000.000)
  5. SUPER ROYAL FLUSH x 30000 harga jackpot yang anda beli
      (contoh:anda membeli 1000 maka:1000 X30000 = 30.000.000)

Kondisi kartu

  1. full house adalah kondisi kartu dimana kartu anda dan kartu tengah dengan total 7 kartu bisa mendapatkan nilai 5 kartu dengan kombinasi 1 tris(three of kind) dan 1 pair, contoh 3 kartu 10 dan 2 kartu 5
  2. Four of kind adalah kondisi kartu dimana kartu anda dan kartu tengah dengan total 7 kartu bisa mendapatkan nilai 5 kartu dengan kombinasi 4 kartu yang sama jumlah dan 1 kartu apapun juga contoh anda mendapatkan 4 buah kartu angka 3 dan 1 kartu apapun.
  3. Staright flush adalah kondisi kartu dimana kartu anda dan kartu tengah dengan total 7 kartu bisa mendapatkan nilai 5 kartu dengan kombinasi seri / staright dengan kembang yang sama contoh : urutan kartu dari angka 5, 6, 7, 8 , 9 10 dengan kembang yg sama misalnya as hati
  4. Royal flush adalah kondisi kartu dimana kartu anda dan kartu tengah dengan total 7 kartu bisa mendapatkan nilai 5 kartu dengan kombinasi seri / staright dengan kembang yang sama tetapi kartu tersebut haruslah dimulai dari 10. contoh 10, Queen, Jack, King dan aces dengan kembang yang sama
  5. Super Royal flush adalah kondisi kartu dimana Kedua kartu anda digabung dengan 3 kartu pertama meja haruslah royal flush. contoh kartu anda 10,Queen kembang sama dan 3 kartu pertama meja adalah Jack, King dan aces dengan kembang yang sama

Demikian adalah penjelasan dari Multi Jackpot www.kaskuspoker.com terima kasih dan selamat bermain salam hoki dari kami

Texas Poker Jackpot Winner

TOP SUPER ROYAL FLUSH
No.TanggalNamaPriceWin
118/08 19:22IRA23Super Royal flush15,000,000
218/08 14:54LASTFAST33Super Royal flush15,000,000
318/08 10:17GODSICKSuper Royal flush15,000,000
418/08 04:09MENANG4292Super Royal flush60,000,000
518/08 00:46DUWITSuper Royal flush30,000,000
TOP ROYAL FLUSH
No.TanggalNamaPriceWin
118/08 19:40DF7F4222Royal flush2,000,000
218/08 19:37B4LMOND99Royal flush2,000,000
318/08 19:08ARAS_99Royal flush5,000,000
418/08 19:06PERANG01Royal flush2,000,000
518/08 19:06BOX5000Royal flush2,000,000
TOP STRAIGHT FLUSH
No.TanggalNamaPriceWin
118/08 19:42B4DB7EF1Straight Flush120,000
218/08 19:41MORINAGAStraight Flush120,000
318/08 19:41HURJEEKStraight Flush1,200,000
418/08 19:41CUNGIKStraight Flush240,000
518/08 19:40HASANATUL9Straight Flush1,200,000
LATEST JACKPOT
No.TanggalNamaPriceWin
118/08 19:42ANANDA_99Full House1,000
218/08 19:42JANAH24Full House1,000
318/08 19:4217DOAFull House1,000
418/08 19:42KIYAYBOY88Full House5,000
518/08 19:42GV0QT6JPQDFull House2,000
618/08 19:42ELISTRIANIFull House20,000
718/08 19:42B4DB7EF1Straight Flush120,000
818/08 19:42B85FIALIH533Four Of A Kind25,000
918/08 19:42AHENK14Full House2,000
1018/08 19:42INEX22Full House5,000
1118/08 19:42D27ELLEFull House5,000
1218/08 19:42R0Y4L_4JTFull House2,000
1318/08 19:42B37026DDFull House5,000
1418/08 19:42NDHO69Full House5,000
1518/08 19:42IRWANASGFull House2,000
1618/08 19:42SIATAT_CANFull House1,000
1718/08 19:42KURNIA880Full House2,000
1818/08 19:42KUNTRINKFull House2,000
1918/08 19:42HIPID23Full House2,000
2018/08 19:42COJPL1DRQKFour Of A Kind25,000
2118/08 19:42UUVTZDN5BVFull House2,000
2218/08 19:42A71C9F04Full House2,000
2318/08 19:42DERASTAWAFull House2,000
2418/08 19:42LISBET93Full House2,000
2518/08 19:42PANGLIMA2Full House2,000
2618/08 19:42ELI12Full House5,000
2718/08 19:42JAKA033Four Of A Kind125,000
2818/08 19:42CE2P114Four Of A Kind50,000
2918/08 19:42E8628C9FFull House1,000
3018/08 19:42LANTURIFull House10,000
3118/08 19:42QUIK777Full House5,000
3218/08 19:42HOUSE99Four Of A Kind125,000
3318/08 19:42PUTR1S4LJUFull House2,000
3418/08 19:42JUEYEFull House1,000
3518/08 19:42STWN20Full House1,000
3618/08 19:42VARISSA46Full House1,000
3718/08 19:42SYAQILA27Full House2,000
3818/08 19:42CINCAU009Full House1,000
3918/08 19:42COMONKFull House2,000
4018/08 19:42GXIBR5GMIRFull House2,000
4118/08 19:42HOKY9Full House2,000
4218/08 19:42YANTEXXFull House2,000
4318/08 19:42AAAABGGL63Full House5,000
4418/08 19:42Y667OESXKDFull House2,000
4518/08 19:42EA5273E6Full House1,000
4618/08 19:42TEMPAKUL1Full House2,000
4718/08 19:42MEGITSUNEFull House2,000
4818/08 19:41MULTIKA12Full House2,000
4918/08 19:41MLVE664YFull House2,000
5018/08 19:41HERIHARISFull House5,000

Domino Multi Jackpot System

Ikutilah global jackpot yang tersedia di system kami, dengan system jackpot terbaru dan pertama di indonesia, anda dapat membeli jackpot dengan harga 100 rupiah saja dan menangkan hadiahnya hingga puluhan juta rupiah.

Jackpot bukanlah suatu keharusan untuk dibeli, namun kami memberikan suatu fitur tambahan untuk member tercinta dari www.kaskuspoker.com.

Terdapat tiga pilihan harga jackpot yang bisa anda beli yaitu :100,500 dan 1000 rupiah.

Hadiah dari Multi jackpot system www.kaskuspoker.com

  1. Murni Kecil x 50 harga jackpot yang anda beli.
      (contoh:anda membeli 1000 maka:1000 X 50 = 50.000)
  2. Murni Besar x 50 harga jackpot yang anda beli
      (contoh:anda membeli 1000 maka:1000 X 50 = 50.000)
  3. BALAK x 100 harga jackpot yang anda beli
      (contoh:anda membeli 1000 maka:1000 X 100 = 100.000)
  4. ENAM DEWA x 6666 harga jackpot yang anda beli
      (contoh:anda membeli 1000 maka:1000 X 6666 = 6.666.000)

Demikian adalah penjelasan dari Multi Jackpot www.kaskuspoker.com terima kasih dan selamat bermain salam hoki dari kami

Domino Jackpot Winner

TOP ENAM DEWA
No.TanggalNamaPriceWin
118/08 19:20GILAGILAAmurni enam6,666,000
218/08 18:58ANOM78murni enam3,333,000
318/08 18:25DOBOLL9murni enam666,600
418/08 16:59E_M_M_4murni enam6,666,000
518/08 16:30DM82997murni enam3,333,000
TOP BALAK
No.TanggalNamaPriceWin
118/08 19:41DIANATIObalak100,000
218/08 19:36IBARA1balak100,000
318/08 19:35FARI71balak50,000
418/08 19:34STEKINGbalak100,000
518/08 19:30KAGEMANE19balak100,000
LATEST JACKPOT
No.TanggalNamaPriceWin
118/08 19:42XPALKORXmurni besar25,000
218/08 19:42WWLGR2Fmurni kecil50,000
318/08 19:42RATTIH99murni besar25,000
418/08 19:41CRAY888murni besar50,000
518/08 19:41JRIU33murni kecil25,000
618/08 19:41AMIGOmurni besar50,000
718/08 19:41DIANATIObalak100,000
818/08 19:40JOEL2199murni besar50,000
918/08 19:40STEKINGmurni besar50,000
1018/08 19:40DARKZLIU91lucky9925,000
1118/08 19:39EMIN8481murni kecil50,000
1218/08 19:38ANGEL222murni besar5,000
1318/08 19:38DOURATOmurni besar25,000
1418/08 19:38LANCAH229murni besar25,000
1518/08 19:37SQUAD6murni kecil50,000
1618/08 19:36IBARA1balak100,000
1718/08 19:36AGUSZQQmurni kecil25,000
1818/08 19:36MASJID1980murni besar5,000
1918/08 19:36OJOB99murni besar50,000
2018/08 19:35PAKLEKKUmurni kecil25,000
2118/08 19:35FARI71balak50,000
2218/08 19:35OCONG78murni besar50,000
2318/08 19:35CANDRA7997murni kecil5,000
2418/08 19:34STEKINGbalak100,000
2518/08 19:30LANCAH229murni kecil25,000
2618/08 19:30KAGEMANE19balak100,000
2718/08 19:30CHILOENKmurni kecil50,000
2818/08 19:29MNWmurni kecil50,000
2918/08 19:29JUHA114balak10,000
3018/08 19:28KINGKOJEKlucky9910,000
3118/08 19:28PANEN23murni besar25,000
3218/08 19:28KAZAOO21murni kecil25,000
3318/08 19:27ARIEF1717murni kecil50,000
3418/08 19:27DJHOUSElucky992,500
3518/08 19:27IMELDA727murni kecil50,000
3618/08 19:27TANGIRmurni kecil50,000
3718/08 19:26MPLENGmurni besar5,000
3818/08 19:26GILANG845murni besar25,000
3918/08 19:25C7WGBG020Zmurni kecil5,000
4018/08 19:25DDELLA25murni kecil25,000
4118/08 19:25MIE01murni besar50,000
4218/08 19:25BEBEGIG212balak50,000
4318/08 19:25SENGAL3murni kecil50,000
4418/08 19:24PCC99murni kecil25,000
4518/08 19:24QIRA14murni kecil50,000
4618/08 19:24MOTIF_33murni kecil5,000
4718/08 19:24MIE01balak100,000
4818/08 19:24JOEL2199murni besar50,000
4918/08 19:24DDSC1407balak100,000
5018/08 19:24KI4AS99balak100,000

Ceme Multi Jackpot System

Jackpot dilihat dari gabungan kartu pemain dengan kartu bandar. Bandar harus membeli jackpot sebanyak jumlah player yang sedang duduk. Sebagai contoh bila terdapat 3 pemain duduk bermain, dan bandar memutuskan untuk membeli jackpot Rp 1.000, maka pada periode tersebut bandar akan membeli jackpot sebanyak 3xRp1.000 = Rp3.000.

Jackpot bukanlah suatu keharusan untuk dibeli, namun kami memberikan suatu fitur tambahan untuk member tercinta dari www.kaskuspoker.com.

Terdapat tiga pilihan harga jackpot yang bisa anda beli yaitu :100,500 dan 1000 rupiah.

Hadiah dari Multi jackpot system www.kaskuspoker.com

  1. Murni Kecil x 50 harga jackpot yang anda beli.
      (contoh:anda membeli 1000 maka:1000 X 50 = 50.000)
  2. Murni Besar x 50 harga jackpot yang anda beli
      (contoh:anda membeli 1000 maka:1000 X 50 = 50.000)
  3. BALAK x 200 harga jackpot yang anda beli
      (contoh:anda membeli 1000 maka:1000 X 200 = 200.000)
  4. ENAM DEWA x 6666 harga jackpot yang anda beli
      (contoh:anda membeli 1000 maka:1000 X 6666 = 6.666.000)

Demikian adalah penjelasan dari Multi Jackpot www.kaskuspoker.com terima kasih dan selamat bermain salam hoki dari kami

Ceme Jackpot Winner

TOP ENAM DEWA
No.TanggalNamaPriceWin
118/08 19:42JAWAS324murni enam3,333,000
218/08 19:36THEMASTHERmurni enam3,333,000
318/08 19:36MAXIBOISmurni enam3,333,000
418/08 19:31SEQUIS22murni enam6,666,000
518/08 19:31S121983murni enam3,333,000
TOP BALAK
No.TanggalNamaPriceWin
118/08 19:40LODES_BOSbalak200,000
218/08 19:40AYUK49balak20,000
318/08 19:40JAVAS15balak200,000
418/08 19:40OKEHbalak20,000
518/08 19:38ZOELF96balak100,000
LATEST JACKPOT
No.TanggalNamaPriceWin
118/08 19:42CRISSYA3murni kecil50,000
218/08 19:42RARA4444murni kecil50,000
318/08 19:42IXWYRKIYFKmurni kecil5,000
418/08 19:42DEW4POK3Rmurni kecil25,000
518/08 19:42KENANGmurni kecil5,000
618/08 19:42JAWAS324murni enam3,333,000
718/08 19:41RDI234murni kecil50,000
818/08 19:41ACHIE86murni besar50,000
918/08 19:41ISEmurni besar5,000
1018/08 19:41JUNIA79murni kecil50,000
1118/08 19:40TUNKIRmurni kecil25,000
1218/08 19:40SHERLIEmurni kecil50,000
1318/08 19:40CELLLmurni besar5,000
1418/08 19:40LODES_BOSbalak200,000
1518/08 19:40JOYA17murni kecil50,000
1618/08 19:40FANDI789murni kecil50,000
1718/08 19:40FRUZTECKmurni kecil50,000
1818/08 19:40RAJATEGA04murni kecil5,000
1918/08 19:40AYUK49balak20,000
2018/08 19:40JAVAS15balak200,000
2118/08 19:40WELUT31murni kecil50,000
2218/08 19:40JAKASONA37murni kecil25,000
2318/08 19:40ACHA13murni besar5,000
2418/08 19:40OKEHbalak20,000
2518/08 19:40CELCIUSmurni kecil50,000
2618/08 19:40DARIUSmurni kecil50,000
2718/08 19:40STEMPLETmurni besar50,000
2818/08 19:40ADECIKAL99murni besar5,000
2918/08 19:40YAURECCEmurni besar25,000
3018/08 19:40CODOT66666murni kecil50,000
3118/08 19:40UL4Y168murni kecil50,000
3218/08 19:40LB888727murni kecil5,000
3318/08 19:39MRWIJAYA33murni besar25,000
3418/08 19:39EYZ4murni besar25,000
3518/08 19:39AJIS_234murni besar5,000
3618/08 19:39JULIADI1murni besar25,000
3718/08 19:39BPOKER83murni besar25,000
3818/08 19:39GIBAS777murni kecil5,000
3918/08 19:39KUKUMmurni besar50,000
4018/08 19:39APOAPO12murni besar50,000
4118/08 19:39SURYASTAR1murni besar50,000
4218/08 19:39PUTU8888murni kecil50,000
4318/08 19:38ZOELF96balak100,000
4418/08 19:38JUNIA79murni kecil50,000
4518/08 19:38IDUTEAmurni kecil50,000
4618/08 19:38AYUK49murni besar5,000
4718/08 19:38DWICANDRAbalak200,000
4818/08 19:38ZULCASPER3murni kecil25,000
4918/08 19:38ZULCASPER3balak100,000
5018/08 19:38RAMANDA9balak100,000